Temperature
23 22 21 22 25 26 29 33 34 34 34 34 34 34 33 32 31 29 28 26 24 24 24 23 23 22 22 22 21 20 20 20 20 20 19 19 19 19 19 19 19 19 19 19 18 18 18 19 19
23 22 22 25 27 28 30 34 34 34 34 34 34 34 33 31 30 28 27 25 23 24 24 23 23 22 22 22 21 20 20 20 20 20 19 19 19 19 19 19 19 19 19 18 18 18 19 19 19
22 23 26 29 31 31 32 34 34 35 34 34 34 33 32 30 29 28 26 25 23 22 23 23 23 23 22 22 21 21 20 20 20 20 20 19 19 19 19 19 19 19 19 19 18 18 19 19 20
23 26 28 30 32 34 34 35 35 35 34 34 34 32 30 29 29 27 26 25 23 22 23 23 23 22 22 22 22 21 21 20 20 20 20 20 19 19 19 19 19 19 19 19 19 19 19 19 20
24 28 31 32 34 35 35 35 35 35 34 34 33 31 29 28 28 27 27 26 24 22 23 23 23 22 22 22 21 21 21 21 20 20 20 20 20 19 19 19 19 19 19 19 19 19 19 19 20
27 31 32 33 34 35 36 35 35 35 34 33 32 30 28 28 28 28 27 26 25 23 23 23 23 22 22 22 21 21 21 21 21 20 20 20 20 20 19 19 19 19 19 18 19 19 19 19 20
28 31 32 33 34 35 35 35 35 35 34 32 31 30 28 28 28 28 27 27 26 23 23 23 23 22 22 21 21 21 21 21 21 21 21 20 20 20 20 19 19 19 19 18 18 19 19 19 20
29 31 32 33 34 35 35 35 34 34 33 31 31 29 27 27 27 27 27 27 26 24 22 22 22 22 22 22 22 21 21 21 21 21 21 21 21 20 20 20 20 19 19 19 19 19 19 19 19
29 30 31 33 34 34 35 34 34 33 31 30 29 29 27 27 27 27 27 26 25 24 23 22 21 21 21 21 21 21 20 20 20 20 20 20 20 20 20 20 20 20 20 19 19 19 19 19 19
30 30 32 34 34 34 34 33 33 33 31 28 28 28 28 27 27 27 26 25 24 24 23 22 22 21 20 20 20 20 20 20 20 19 19 19 20 19 19 19 20 20 20 20 19 19 19 19 19
32 31 33 34 34 33 33 32 31 31 28 27 27 26 27 27 26 25 25 24 24 23 22 22 21 21 21 20 20 19 19 19 19 19 19 18 18 18 19 19 19 19 19 19 19 19 19 19 19
32 32 33 33 33 33 32 32 29 27 25 24 25 25 25 24 23 23 23 22 22 21 21 21 21 21 20 20 20 19 19 19 19 19 18 18 18 18 18 18 18 18 18 18 19 19 19 19 18
32 32 32 32 32 32 31 30 27 24 23 23 23 22 22 22 21 21 21 21 20 20 20 20 20 20 20 20 20 19 19 19 19 19 18 18 18 18 18 18 18 18 18 18 18 18 18 18 18
32 33 32 32 32 31 31 29 27 24 22 21 21 20 20 20 19 19 19 19 19 19 19 19 19 19 19 19 18 18 18 18 18 18 18 18 18 18 18 18 18 18 18 17 17 17 17 17 17
32 32 32 32 31 30 29 27 25 23 22 21 20 19 19 19 19 19 18 18 18 18 18 18 18 18 18 18 18 17 17 17 17 17 17 17 17 17 17 17 17 17 17 17 17 17 17 17 17
32 31 30 30 29 30 30 25 24 23 22 21 20 19 19 19 19 18 18 18 18 18 18 18 18 18 17 17 17 17 17 17 17 17 17 17 17 17 17 16 16 16 16 16 16 16 17 17 17
30 29 27 26 26 27 29 25 24 23 22 21 21 20 19 19 19 18 18 17 17 17 17 17 17 17 17 17 17 17 17 17 17 16 16 16 16 16 16 16 16 16 16 16 16 16 16 16 16
27 25 23 23 26 27 28 25 25 24 23 22 21 20 20 19 19 19 18 18 17 17 17 17 17 17 17 17 17 16 16 16 16 16 16 16 16 15 15 16 16 15 15 15 15 15 15 16 16
28 26 24 24 27 28 27 26 26 25 24 23 21 21 20 20 19 19 19 19 18 17 17 17 16 16 16 16 16 16 16 16 16 16 16 15 15 15 15 15 15 15 15 15 15 15 15 15 15
30 29 27 26 26 27 27 27 26 26 25 23 22 21 21 20 20 20 19 19 19 18 17 17 16 16 15 15 15 15 15 15 16 16 16 15 15 15 14 15 15 15 15 15 15 15 15 15 15
30 28 28 26 26 26 26 25 25 25 24 24 23 22 22 21 21 20 20 19 19 18 18 17 16 15 15 14 14 14 14 15 15 15 15 15 15 14 14 14 15 15 15 15 15 15 15 15 15
27 28 28 28 26 25 24 21 22 22 23 24 23 22 22 21 21 20 20 20 19 18 18 17 16 15 14 14 13 13 13 13 14 14 14 14 14 14 14 14 14 14 14 15 15 15 15 15 15
29 29 28 26 24 22 18 17 18 20 21 23 23 23 22 22 21 21 20 20 19 18 17 17 16 15 14 13 13 12 12 12 12 13 13 13 14 14 14 14 14 14 14 14 14 14 15 15 15
31 29 26 22 21 19 18 18 18 20 22 23 23 23 22 22 22 21 21 20 19 18 17 17 16 15 14 13 12 12 12 12 12 12 12 13 13 14 14 14 14 14 14 14 14 14 14 14 15
30 28 24 20 18 19 20 19 20 23 24 24 24 23 23 22 22 21 21 20 19 18 17 16 15 14 14 13 12 12 11 11 11 12 12 12 12 13 13 13 13 13 13 13 14 14 14 14 14
29 29 26 25 24 23 21 20 22 25 25 24 24 24 23 23 22 22 21 19 19 18 17 16 15 14 13 12 12 11 11 11 11 11 11 11 11 12 12 12 12 12 12 13 13 13 13 14 14
29 29 30 28 28 26 23 22 22 25 25 25 25 24 24 23 22 21 20 19 18 17 16 15 14 13 12 12 11 11 11 10 10 10 10 10 10 11 11 11 12 12 12 12 12 12 13 13 13
30 30 29 27 26 26 26 23 22 24 25 25 25 24 23 22 21 20 19 18 17 16 15 14 14 13 12 11 11 11 10 9 9 9 9 9 9 9 10 10 10 11 11 11 11 12 12 12 13
29 29 28 28 27 26 26 24 25 25 25 25 25 24 23 21 20 19 18 17 16 15 15 14 13 12 12 11 10 10 9 9 9 9 9 9 9 9 9 9 9 10 10 10 11 11 11 12 12
29 28 28 26 26 27 26 25 26 26 25 25 24 23 21 20 19 18 18 16 15 15 14 13 12 12 11 11 10 10 9 9 9 8 8 8 8 8 8 8 8 9 9 9 10 10 11 11 11
Wind_Speed
13 13 11 8 5 5 6 8 11 11 10 9 8 9 18 17 12 8 10 19 25 22 21 21 19 18 16 15 14 13 13 13 13 12 12 11 11 11 10 9 9 8 8 8 9 9 10 9 9
13 12 10 6 7 4 2 9 11 9 7 4 6 12 18 17 12 11 13 18 24 21 19 19 20 18 16 15 14 13 13 13 13 12 11 11 11 10 10 9 9 8 8 8 8 9 10 10 9
13 14 7 7 10 4 5 10 9 6 7 5 9 15 12 11 12 10 13 19 22 19 18 20 20 18 16 15 14 13 12 12 12 11 11 10 10 10 9 9 9 8 8 8 8 9 9 10 9
8 9 7 10 13 3 6 8 7 7 6 5 9 12 10 8 10 13 15 21 22 19 19 20 19 18 16 15 13 12 11 11 11 10 10 10 9 9 9 9 9 9 8 8 9 9 9 9 9
10 7 11 15 13 2 6 6 5 6 5 7 11 14 12 12 15 15 15 21 19 20 19 19 18 17 15 14 13 12 11 11 10 10 10 9 9 9 9 10 10 10 10 9 10 10 10 10 9
7 9 13 14 7 2 5 7 8 7 8 10 9 16 10 12 13 13 14 16 19 21 18 18 18 16 15 14 13 12 11 11 10 10 10 9 9 10 10 11 11 11 10 10 11 11 10 10 10
10 12 16 18 14 4 5 5 8 9 10 9 8 11 10 10 11 12 11 12 18 22 19 16 16 15 14 13 13 12 12 12 11 11 11 11 11 11 11 11 12 12 11 11 11 12 11 11 10
11 12 17 17 16 5 6 5 8 9 9 11 11 9 9 9 10 11 10 10 13 19 18 16 15 15 14 14 15 15 14 13 13 12 13 13 13 13 13 13 14 14 14 13 13 13 13 12 12
14 13 16 16 11 6 7 7 7 5 8 15 14 12 11 12 11 10 10 10 9 12 12 12 13 13 12 14 16 15 13 13 12 12 14 13 12 14 15 18 18 18 17 16 15 15 15 14 15
13 13 17 14 9 8 7 5 6 4 10 13 10 10 8 9 9 9 10 9 8 7 8 6 8 7 4 4 12 12 12 14 14 13 14 13 13 13 15 19 24 23 21 19 18 18 17 16 14
15 17 18 16 10 8 7 3 5 6 11 13 11 9 6 8 7 8 8 7 8 8 9 8 9 9 9 6 3 2 5 8 14 14 12 12 11 11 11 8 14 19 19 16 17 18 16 16 14
17 16 15 13 10 7 6 3 9 14 11 11 11 10 10 13 13 13 12 11 12 12 12 13 13 11 11 8 6 4 4 3 1 3 7 6 4 5 5 4 4 9 12 11 11 10 14 15 16
15 14 13 10 6 4 1 5 10 12 11 11 13 16 17 15 15 15 15 15 15 14 13 13 12 11 9 8 7 7 6 5 6 4 3 4 4 5 7 6 5 7 9 7 8 8 11 12 10
12 11 9 6 3 3 5 8 8 10 10 11 12 12 13 14 15 15 15 14 13 13 12 10 10 9 8 6 6 5 5 4 5 4 5 5 5 5 6 8 9 7 7 6 6 9 9 9 9
12 12 11 7 7 8 11 9 9 8 9 10 10 10 11 12 12 13 12 11 11 10 10 9 7 8 7 6 7 6 5 6 4 4 6 6 6 5 6 7 8 7 8 7 6 7 6 8 8
13 15 11 1 1 6 9 8 9 7 9 10 9 9 10 10 10 10 10 9 9 9 8 8 9 9 7 6 6 5 5 5 4 5 5 5 6 6 6 7 7 6 5 6 7 7 7 8 8
10 7 1 4 5 8 5 11 10 9 11 10 9 9 10 9 10 9 10 10 9 7 6 6 7 8 8 7 7 6 4 4 4 4 3 4 6 6 4 5 5 4 4 5 8 7 7 9 9
5 5 3 7 9 9 6 10 11 10 11 11 10 10 10 10 10 9 9 9 7 7 6 6 6 6 7 6 6 6 6 5 5 3 2 4 5 5 4 4 3 3 3 3 5 7 6 6 7
10 13 11 10 5 2 7 11 12 11 11 11 11 10 10 10 9 8 7 7 7 5 4 3 4 6 6 5 7 7 6 6 6 5 2 3 5 5 4 4 3 3 2 3 3 4 5 5 6
10 7 4 3 2 4 5 9 11 11 11 12 12 11 11 10 8 6 5 4 4 4 3 3 6 7 7 7 7 7 7 7 7 4 4 4 5 5 6 4 4 3 3 3 3 2 3 3 4
9 11 7 4 7 10 8 6 9 9 10 11 11 10 10 8 6 4 2 2 3 4 5 6 5 6 8 9 8 9 8 8 7 7 5 4 5 6 5 5 4 4 4 3 4 3 2 2 3
6 8 12 11 6 4 3 1 4 6 7 9 10 9 8 5 4 2 2 4 5 6 6 6 5 6 6 8 9 11 10 10 10 8 7 9 8 7 5 4 4 4 4 4 5 5 3 3 4
5 7 3 11 11 9 10 4 4 5 8 9 9 9 7 5 2 1 3 4 5 7 7 5 4 4 5 6 9 10 10 9 9 10 11 10 9 8 6 3 2 4 4 4 4 4 4 3 4
8 5 5 13 9 6 4 4 6 9 11 11 9 7 5 3 2 2 4 4 4 6 6 6 6 5 6 7 8 9 9 9 11 12 11 9 7 6 6 4 1 2 3 4 4 4 5 5 6
11 9 4 3 1 7 9 6 5 8 8 9 7 6 3 1 3 3 5 6 5 6 6 6 7 7 7 7 7 7 8 10 11 11 9 10 9 8 8 7 3 3 3 4 4 4 4 4 6
8 8 7 9 6 2 7 4 4 9 8 5 3 2 1 3 5 7 8 8 7 8 7 7 7 7 6 7 7 6 8 8 8 10 11 10 10 9 9 8 6 5 5 6 3 3 4 3 3
8 10 12 11 9 3 7 8 7 6 6 3 1 2 4 5 8 9 10 10 9 8 7 7 7 6 7 7 7 7 6 7 9 9 10 10 9 11 11 11 10 8 7 6 5 4 5 4 4
8 9 8 8 9 9 6 8 6 5 3 5 6 7 7 9 10 12 11 11 10 9 7 7 7 7 7 8 7 10 8 8 8 9 9 10 10 9 10 10 10 10 9 8 7 7 7 7 5
8 9 8 9 9 8 7 7 8 5 5 6 8 8 9 10 12 12 11 11 11 11 10 8 8 8 7 7 7 8 8 8 9 8 8 8 9 9 10 10 10 11 11 10 9 9 9 8 7
4 6 7 7 8 8 8 6 4 4 5 6 7 8 9 10 10 11 11 10 11 11 11 10 10 10 8 8 8 8 8 9 9 10 9 8 9 9 10 10 10 11 12 10 10 11 12 10 10
Wind_Direction
179 190 203 221 241 245 303 26 39 36 42 44 44 44 61 52 48 76 88 102 114 124 133 137 137 137 135 133 132 137 144 150 151 149 148 148 147 147 147 147 148 149 146 141 138 135 133 128 121
191 200 212 239 242 250 358 34 36 40 46 44 67 60 67 63 69 92 98 113 119 127 139 140 140 140 139 138 137 140 144 148 151 152 152 151 152 154 156 158 161 163 158 154 150 146 142 138 135
224 231 249 250 256 271 24 35 21 39 51 30 77 67 57 66 77 97 120 127 124 130 134 135 143 143 144 144 145 146 146 148 152 155 158 160 162 165 167 168 172 175 172 168 164 158 154 151 150
235 232 240 253 273 346 40 30 2 36 70 25 74 83 73 61 88 112 135 126 122 130 132 140 144 146 148 150 152 154 154 155 158 162 167 171 174 176 178 178 182 184 184 180 175 167 165 165 164
244 258 250 263 272 24 49 29 351 23 56 59 85 97 92 91 103 127 137 125 135 134 132 142 146 148 152 155 159 162 164 166 170 174 177 182 187 190 193 193 193 194 193 191 182 174 173 174 177
254 257 271 287 298 73 51 26 4 19 46 41 73 107 101 116 122 132 130 139 137 129 132 139 147 151 157 162 166 170 173 177 181 184 187 192 197 201 205 205 203 202 202 193 187 184 183 186 190
258 278 286 291 297 314 70 16 17 17 46 33 43 100 114 114 122 127 136 137 130 127 132 144 151 157 164 170 175 179 184 188 191 194 196 201 206 210 212 212 209 208 207 199 194 194 195 198 203
266 283 284 283 285 305 66 33 35 20 41 43 31 80 108 131 137 126 133 122 115 126 136 150 159 160 171 180 186 188 192 196 200 204 206 209 213 217 218 217 212 210 208 205 204 206 208 208 211
264 267 271 279 310 346 21 8 8 27 60 61 41 59 112 133 126 132 127 114 103 117 135 152 153 161 181 184 183 189 199 205 208 214 219 219 223 222 218 221 215 211 211 211 213 215 215 215 217
241 258 268 291 331 328 338 341 319 319 58 56 52 53 87 119 130 138 127 123 127 114 104 96 111 134 171 181 158 186 199 201 207 215 210 214 228 238 234 217 215 213 212 213 216 219 219 217 222
245 258 278 297 314 313 309 326 19 5 48 29 25 36 60 89 80 81 96 99 105 95 67 62 58 54 36 30 83 223 215 192 200 219 219 216 229 244 255 244 213 213 213 215 216 218 220 219 221
248 260 277 288 298 301 297 321 65 54 45 29 28 39 58 70 67 66 68 68 71 66 57 50 48 44 33 22 2 344 353 356 303 215 223 233 241 257 267 272 251 214 214 215 219 212 215 222 223
247 254 263 272 278 269 216 71 79 67 51 47 48 48 51 57 59 60 62 62 58 56 50 46 43 41 28 15 352 352 334 324 316 320 272 258 256 260 264 266 262 247 236 225 222 224 219 220 226
271 262 255 253 241 178 142 102 89 80 73 66 59 55 55 56 55 56 54 55 54 50 42 36 39 39 24 3 349 325 313 309 310 327 333 313 287 273 270 268 264 256 252 252 229 232 239 232 228
256 258 242 212 184 156 140 98 88 94 98 89 80 71 65 61 61 62 60 58 56 52 42 25 41 40 21 357 344 325 315 325 331 338 327 316 302 297 287 276 269 259 253 254 249 243 244 245 236
246 241 232 189 338 185 197 115 113 131 115 101 96 90 82 74 73 74 74 69 64 58 51 37 31 24 4 360 339 321 327 328 317 313 316 328 329 316 300 282 274 267 259 250 250 244 244 244 243
251 278 338 15 315 256 207 129 138 147 126 117 111 103 99 94 86 83 83 79 75 68 55 47 43 23 355 350 335 329 323 317 305 308 324 337 323 313 308 301 292 284 264 253 253 244 238 240 240
355 348 325 255 240 232 141 129 143 148 136 127 121 117 113 104 98 97 98 99 91 80 62 40 33 28 351 354 340 342 333 335 323 316 346 337 318 313 302 293 290 287 280 267 256 252 240 238 237
210 203 205 222 259 267 158 156 157 151 144 133 130 127 120 112 111 107 103 98 95 83 67 50 24 21 351 2 341 327 327 330 317 310 4 344 329 325 300 302 297 265 255 266 278 262 247 237 232
249 246 165 155 312 282 209 168 153 157 145 141 141 139 136 130 126 123 117 94 81 73 44 27 25 10 356 359 322 310 329 320 304 327 344 336 339 326 315 299 288 267 256 265 277 267 239 240 227
319 343 323 253 223 236 229 179 148 144 138 145 143 139 136 138 132 121 78 43 32 33 21 24 27 16 10 351 331 339 330 315 321 333 322 345 338 314 309 304 294 281 262 254 246 248 247 252 266
328 319 297 294 269 270 35 275 143 138 159 162 148 145 144 142 151 151 330 3 6 8 6 24 28 32 13 355 340 334 323 321 328 327 328 332 320 302 291 299 311 298 281 263 244 226 218 245 265
259 227 323 10 10 20 39 30 280 199 191 180 165 162 157 165 190 259 318 344 359 357 354 356 12 20 5 350 335 330 324 326 322 322 312 307 298 286 284 279 317 320 304 293 276 264 233 231 249
311 277 36 37 23 341 243 197 227 209 197 173 166 164 166 189 250 288 310 341 5 351 347 346 356 359 357 343 328 320 320 321 315 304 297 300 301 306 312 311 23 322 328 324 305 288 260 238 248
316 307 330 2 192 239 220 201 214 175 154 148 155 163 172 223 275 300 339 354 355 348 354 352 351 351 346 329 318 320 316 308 298 303 324 332 323 319 316 320 323 303 303 303 301 304 292 260 246
302 315 324 316 306 207 173 190 130 113 109 117 119 112 283 303 332 350 357 0 357 356 359 352 347 341 333 325 320 312 297 303 316 328 325 311 301 301 305 316 311 294 279 274 270 282 283 284 268
337 341 337 321 320 348 147 132 121 130 135 122 21 329 332 355 356 355 358 355 358 357 355 347 342 337 331 323 312 298 318 332 321 313 304 305 312 312 319 324 312 297 279 264 253 248 253 255 261
344 339 353 337 346 346 58 107 123 127 48 15 352 353 6 3 358 358 352 349 351 346 345 345 341 336 329 325 328 327 334 317 311 311 308 304 303 304 305 302 300 296 287 272 253 244 238 225 225
352 7 2 344 358 343 351 76 96 61 28 2 352 4 7 4 356 347 345 348 344 339 341 343 340 337 333 332 331 324 317 314 307 301 302 309 311 311 305 302 298 295 290 281 267 253 250 236 224
351 14 359 353 343 323 330 96 79 43 39 24 7 7 10 2 349 343 343 345 340 337 338 337 337 330 330 331 326 318 314 310 308 308 309 305 301 300 300 299 297 293 290 286 279 266 256 244 233
Height
1505 1506 1507 1511 1509 1504 1494 1473 1464 1464 1464 1466 1466 1465 1469 1475 1480 1492 1494 1493 1492 1494 1498 1501 1504 1506 1509 1512 1514 1517 1519 1522 1524 1526 1528 1529 1531 1532 1534 1535 1536 1538 1539 1541 1542 1543 1544 1545 1547
1505 1506 1509 1508 1502 1504 1490 1470 1467 1465 1466 1465 1465 1467 1471 1479 1484 1489 1493 1495 1493 1495 1498 1501 1504 1507 1509 1512 1514 1517 1519 1521 1524 1526 1528 1529 1531 1532 1534 1535 1537 1538 1540 1541 1543 1544 1545 1546 1547
1505 1508 1508 1497 1488 1488 1481 1468 1466 1464 1466 1465 1466 1471 1477 1484 1487 1490 1494 1496 1495 1497 1499 1502 1505 1507 1509 1512 1514 1517 1519 1521 1524 1526 1527 1529 1531 1532 1534 1536 1537 1539 1540 1542 1543 1544 1545 1546 1548
1506 1507 1503 1493 1484 1472 1468 1467 1466 1464 1468 1467 1467 1475 1484 1487 1489 1492 1494 1497 1497 1499 1500 1503 1506 1508 1510 1512 1515 1517 1519 1521 1523 1525 1527 1529 1530 1532 1534 1535 1537 1539 1540 1542 1543 1544 1546 1547 1548
1508 1503 1494 1485 1474 1466 1463 1465 1465 1465 1467 1468 1470 1478 1486 1490 1491 1493 1495 1498 1499 1500 1502 1505 1507 1509 1511 1513 1515 1517 1519 1521 1523 1525 1527 1529 1530 1532 1533 1535 1537 1538 1540 1542 1543 1544 1545 1547 1548
1506 1495 1491 1484 1470 1463 1463 1466 1465 1466 1468 1471 1474 1478 1488 1492 1493 1495 1497 1499 1501 1501 1503 1506 1509 1511 1513 1515 1517 1518 1520 1522 1523 1525 1527 1528 1530 1531 1533 1534 1536 1538 1539 1541 1542 1543 1545 1546 1547
1505 1494 1489 1480 1470 1464 1465 1467 1468 1470 1472 1475 1478 1481 1489 1492 1495 1497 1499 1501 1503 1502 1505 1507 1510 1512 1514 1516 1517 1519 1521 1522 1523 1525 1526 1528 1529 1530 1532 1533 1535 1536 1538 1539 1541 1542 1543 1544 1546
1501 1494 1488 1478 1471 1466 1464 1468 1472 1474 1477 1479 1480 1484 1491 1495 1496 1498 1501 1503 1505 1505 1507 1509 1511 1513 1515 1516 1518 1519 1521 1522 1523 1524 1525 1526 1527 1529 1530 1531 1533 1534 1536 1537 1538 1540 1541 1542 1543
1499 1497 1492 1478 1471 1467 1467 1471 1475 1478 1480 1483 1487 1489 1492 1495 1498 1500 1502 1505 1508 1509 1511 1512 1513 1514 1516 1516 1517 1519 1520 1521 1522 1523 1524 1525 1526 1527 1528 1529 1530 1531 1533 1534 1535 1537 1538 1539 1540
1494 1494 1484 1472 1470 1470 1471 1475 1478 1479 1483 1488 1491 1492 1494 1496 1499 1501 1503 1506 1510 1512 1513 1515 1516 1516 1518 1519 1518 1519 1519 1520 1521 1522 1522 1523 1524 1525 1527 1527 1527 1528 1529 1530 1531 1533 1534 1535 1536
1488 1486 1479 1473 1472 1473 1475 1477 1480 1482 1489 1495 1495 1496 1496 1497 1500 1501 1504 1507 1510 1512 1513 1515 1515 1516 1517 1519 1519 1520 1520 1520 1520 1521 1521 1521 1522 1523 1524 1525 1524 1524 1525 1525 1526 1528 1529 1530 1531
1483 1480 1477 1475 1475 1476 1478 1479 1485 1491 1498 1500 1499 1499 1499 1500 1501 1503 1505 1507 1509 1511 1513 1513 1514 1515 1516 1517 1518 1519 1520 1520 1520 1520 1520 1520 1520 1520 1520 1521 1521 1520 1519 1520 1521 1522 1523 1525 1527
1477 1477 1476 1475 1475 1477 1479 1483 1489 1497 1501 1502 1502 1503 1503 1504 1505 1506 1507 1508 1509 1511 1512 1513 1514 1515 1517 1517 1517 1518 1518 1518 1518 1518 1518 1517 1517 1516 1516 1516 1515 1515 1514 1515 1515 1516 1517 1519 1521
1475 1473 1472 1473 1474 1477 1480 1485 1492 1500 1503 1505 1506 1506 1507 1507 1508 1508 1509 1510 1511 1512 1514 1515 1515 1516 1516 1517 1517 1516 1516 1516 1516 1515 1514 1513 1512 1511 1510 1509 1508 1508 1508 1508 1509 1510 1512 1514 1515
1475 1474 1472 1472 1474 1477 1481 1490 1497 1502 1504 1507 1509 1509 1510 1510 1510 1510 1511 1512 1513 1514 1515 1516 1517 1516 1516 1516 1515 1515 1515 1514 1513 1511 1510 1508 1506 1505 1503 1502 1500 1500 1500 1501 1502 1503 1505 1506 1509
1472 1474 1478 1476 1476 1477 1481 1499 1500 1503 1504 1507 1509 1511 1512 1512 1513 1513 1514 1514 1515 1515 1516 1517 1517 1516 1516 1515 1514 1513 1513 1511 1510 1508 1506 1504 1502 1500 1498 1495 1493 1492 1493 1493 1494 1496 1497 1499 1502
1475 1486 1490 1489 1483 1481 1481 1495 1499 1501 1503 1506 1509 1511 1513 1514 1515 1515 1516 1516 1516 1517 1517 1517 1517 1516 1515 1515 1513 1512 1511 1509 1507 1505 1503 1501 1498 1496 1493 1490 1487 1486 1486 1486 1487 1488 1490 1492 1495
1492 1498 1504 1503 1487 1481 1482 1491 1495 1499 1501 1505 1508 1511 1513 1515 1516 1517 1517 1517 1517 1518 1517 1517 1517 1515 1514 1513 1512 1510 1509 1507 1505 1503 1500 1497 1495 1492 1490 1487 1484 1481 1480 1481 1482 1483 1483 1485 1488
1478 1486 1497 1494 1482 1480 1482 1487 1491 1495 1499 1503 1507 1510 1513 1515 1517 1518 1519 1519 1519 1518 1518 1517 1516 1514 1513 1511 1509 1507 1506 1504 1502 1500 1497 1495 1492 1490 1487 1484 1482 1479 1478 1478 1479 1479 1480 1481 1484
1469 1476 1484 1485 1480 1481 1482 1484 1487 1492 1497 1502 1506 1509 1512 1514 1517 1518 1519 1519 1519 1518 1518 1517 1515 1513 1511 1509 1507 1506 1504 1501 1500 1498 1495 1493 1490 1487 1485 1483 1480 1479 1477 1477 1476 1477 1477 1479 1481
1470 1478 1480 1483 1481 1480 1484 1490 1490 1494 1498 1503 1506 1508 1510 1513 1515 1517 1518 1518 1518 1518 1517 1515 1513 1511 1509 1507 1505 1503 1500 1498 1497 1495 1493 1490 1488 1485 1483 1481 1479 1477 1476 1475 1474 1475 1476 1477 1478
1481 1477 1476 1479 1486 1490 1497 1513 1504 1500 1502 1503 1506 1508 1510 1512 1514 1516 1516 1517 1517 1516 1515 1513 1511 1508 1506 1504 1502 1500 1498 1495 1493 1491 1489 1487 1485 1483 1481 1479 1476 1475 1474 1473 1473 1474 1474 1475 1476
1473 1470 1478 1487 1495 1508 1521 1534 1521 1509 1506 1503 1504 1507 1508 1510 1512 1513 1514 1515 1514 1514 1513 1511 1509 1506 1504 1502 1500 1498 1495 1492 1489 1487 1485 1483 1481 1480 1478 1476 1474 1473 1472 1471 1471 1471 1472 1473 1474
1464 1469 1481 1494 1507 1527 1524 1532 1525 1511 1502 1499 1502 1504 1507 1508 1510 1511 1512 1512 1512 1511 1510 1509 1506 1504 1501 1499 1497 1495 1492 1488 1485 1483 1481 1479 1478 1477 1476 1474 1472 1470 1469 1468 1468 1468 1469 1470 1471
1468 1479 1500 1520 1531 1527 1511 1520 1511 1494 1493 1496 1500 1503 1505 1506 1507 1508 1509 1509 1509 1508 1507 1505 1503 1501 1498 1496 1493 1491 1488 1485 1482 1480 1477 1475 1474 1473 1472 1471 1469 1468 1467 1466 1465 1465 1465 1466 1467
1470 1473 1494 1506 1505 1504 1507 1514 1501 1491 1494 1497 1498 1500 1502 1503 1505 1506 1507 1507 1506 1505 1504 1502 1500 1497 1495 1492 1490 1487 1484 1481 1479 1476 1473 1471 1470 1469 1468 1467 1465 1464 1464 1463 1463 1462 1462 1462 1463
1471 1472 1466 1476 1477 1487 1498 1500 1499 1492 1493 1495 1496 1497 1499 1501 1503 1505 1505 1505 1504 1503 1501 1499 1496 1494 1491 1489 1486 1483 1480 1477 1474 1471 1469 1467 1465 1463 1462 1461 1460 1459 1459 1459 1459 1458 1458 1458 1458
1469 1469 1474 1483 1493 1496 1490 1499 1503 1496 1493 1492 1494 1495 1498 1501 1502 1503 1504 1503 1502 1500 1498 1496 1493 1490 1488 1485 1482 1479 1475 1472 1469 1466 1464 1462 1460 1458 1456 1455 1454 1454 1453 1453 1454 1453 1454 1454 1454
1475 1476 1479 1480 1483 1498 1499 1503 1489 1491 1492 1493 1494 1496 1499 1501 1502 1503 1502 1501 1499 1498 1495 1493 1490 1487 1484 1481 1477 1474 1471 1468 1465 1462 1460 1457 1454 1452 1450 1449 1448 1447 1447 1447 1448 1448 1448 1449 1449
1474 1478 1482 1495 1497 1488 1490 1501 1485 1487 1489 1492 1494 1497 1499 1501 1502 1501 1500 1499 1497 1495 1492 1490 1487 1484 1480 1477 1473 1470 1467 1463 1460 1458 1455 1452 1449 1447 1445 1443 1441 1440 1440 1440 1440 1441 1442 1442 1443